Naples, Italy

8:08 AM CET on December 09, 2016 (GMT +0100)
Capodichino Mil

Weather History for LIRN - September, 2012

Change the Weather History Date:

Saturday, September 1, 2012

  Actual Average Record
Temperature  
Mean Temperature 64 °F -  
Max Temperature 77 °F 79 °F 88 °F (2015)
Min Temperature 50 °F 60 °F 50 °F (2012)
Degree Days  
Heating Degree Days 2    
Growing Degree Days 14 (Base 50)    
Moisture  
Dew Point 59 °F    
Average Humidity 63    
Maximum Humidity 83    
Minimum Humidity 50    
Precipitation  
Precipitation 0.00 in 0.11 in - ()
Sea Level Pressure  
Sea Level Pressure 29.98 in    
Wind  
Wind Speed 4 mph ()    
Max Wind Speed 9 mph    
Max Gust Speed -    
Visibility 6.2 miles    
Events Rain    
Averages and records for this station are not official NWS values.
T = Trace of Precipitation, MM = Missing Value Source: Averaged Metar Reports

Daily Weather History Graph

Daily Weather History Graph

Search for Another Location

Airport or City:

Trip Planner

Search our weather history database for the weather conditions in past years. The results will help you decide how hot, cold, wet, or windy it might be!

Date:

Astronomy

Sep. 01, 2012 Rise Set
Actual Time 6:29 AM CEST 7:34 PM CEST
Civil Twilight 6:01 AM CEST 8:02 PM CEST
Nautical Twilight 5:28 AM CEST 8:36 PM CEST
Astronomical Twilight 4:52 AM CEST 9:11 PM CEST
Moon 7:41 PM CEST (9/1) 7:20 AM CEST (9/1)
Length of Visible Light 14h 01m
Length of Day
13h 05m
Full, 99% of the Moon is Illuminated
Sep 1
Full
Sep 8
Last Quarter
Sep 16
New
Sep 22
First Quarter
Sep 30
Full

Hourly Weather History & Observations

Time (CEST) Temp. Dew Point Humidity Pressure Visibility Wind Dir Wind Speed Gust Speed Precip Events Conditions
12:20 AM 77.0 °F 66.2 °F 69% 29.95 in 6.2 mi SW 4.6 mph - N/A   Mostly Cloudy
12:50 AM 75.2 °F 64.4 °F 69% 29.95 in 6.2 mi West 6.9 mph - N/A   Mostly Cloudy
1:20 AM 75.2 °F 64.4 °F 69% 29.95 in 6.2 mi Variable 3.5 mph - N/A   Mostly Cloudy
1:50 AM 75.2 °F 62.6 °F 65% 29.95 in 6.2 mi Variable 3.5 mph - N/A   Mostly Cloudy
2:20 AM 75.2 °F 59.0 °F 57% 29.95 in 6.2 mi Variable 3.5 mph - N/A   Scattered Clouds
2:50 AM 75.2 °F 59.0 °F 57% 29.95 in 6.2 mi WNW 3.5 mph - N/A   Scattered Clouds
3:20 AM 73.4 °F 59.0 °F 61% 29.95 in 6.2 mi Variable 1.2 mph - N/A   Scattered Clouds
3:50 AM 73.4 °F 59.0 °F 61% 29.95 in 6.2 mi Variable 2.3 mph - N/A   Scattered Clouds
4:20 AM 73.4 °F 59.0 °F 61% 29.92 in 6.2 mi Variable 2.3 mph - N/A   Scattered Clouds
4:50 AM 71.6 °F 59.0 °F 64% 29.92 in 6.2 mi Variable 2.3 mph - N/A   Scattered Clouds
5:20 AM 71.6 °F 59.0 °F 64% 29.92 in 6.2 mi SW 4.6 mph - N/A   Mostly Cloudy
5:50 AM 71.6 °F 59.0 °F 64% 29.92 in 6.2 mi WSW 5.8 mph - N/A   Mostly Cloudy
6:20 AM 71.6 °F 59.0 °F 64% 29.92 in 6.2 mi Variable 2.3 mph - N/A   Mostly Cloudy
6:50 AM 71.6 °F 60.8 °F 69% 29.92 in 6.2 mi Variable 2.3 mph - N/A   Mostly Cloudy
7:20 AM 73.4 °F 59.0 °F 61% 29.95 in 6.2 mi Variable 1.2 mph - N/A   Mostly Cloudy
7:50 AM 73.4 °F 59.0 °F 61% 29.95 in 6.2 mi Variable 2.3 mph - N/A   Mostly Cloudy
8:20 AM 73.4 °F 59.0 °F 61% 29.95 in 6.2 mi WNW 3.5 mph - N/A   Mostly Cloudy
8:50 AM 75.2 °F 59.0 °F 57% 29.95 in 6.2 mi WNW 5.8 mph - N/A   Mostly Cloudy
9:20 AM 50.0 °F - N/A% 29.95 in - North - - N/A   Unknown
9:50 AM 75.2 °F 55.4 °F 50% 29.98 in 6.2 mi WNW 5.8 mph - N/A   Mostly Cloudy
10:20 AM 75.2 °F 59.0 °F 57% 29.98 in 6.2 mi West 6.9 mph - N/A   Mostly Cloudy
10:50 AM - - N/A% - 6.2 mi WNW 5.8 mph - N/A   Mostly Cloudy
11:20 AM 75.2 °F 57.2 °F 53% 29.98 in 6.2 mi Variable 2.3 mph - N/A   Mostly Cloudy
11:50 AM 75.2 °F 57.2 °F 53% 29.98 in 6.2 mi NNW 4.6 mph - N/A   Mostly Cloudy
12:20 PM 77.0 °F 57.2 °F 50% 29.98 in 6.2 mi NW 3.5 mph - N/A   Mostly Cloudy
12:50 PM 77.0 °F 57.2 °F 50% 29.98 in 6.2 mi West 3.5 mph - N/A   Mostly Cloudy
1:20 PM 75.2 °F 59.0 °F 57% 29.98 in 6.2 mi WNW 4.6 mph - N/A   Mostly Cloudy
1:50 PM 75.2 °F 60.8 °F 61% 30.01 in 6.2 mi West 6.9 mph - N/A   Mostly Cloudy
2:20 PM 73.4 °F 57.2 °F 57% 29.98 in 6.2 mi NW 5.8 mph - N/A   Light Drizzle
2:50 PM 73.4 °F 59.0 °F 61% 29.98 in 6.2 mi Variable 1.2 mph - N/A   Light Drizzle
3:20 PM 73.4 °F 59.0 °F 61% 30.01 in 6.2 mi WNW 4.6 mph - N/A   Light Drizzle
3:50 PM 75.2 °F 55.4 °F 50% 29.98 in 6.2 mi Variable 2.3 mph - N/A   Mostly Cloudy
4:20 PM 75.2 °F 59.0 °F 57% 29.98 in 6.2 mi North 3.5 mph - N/A   Mostly Cloudy
4:50 PM 75.2 °F 59.0 °F 57% 30.01 in 6.2 mi North 5.8 mph - N/A   Mostly Cloudy
5:20 PM 73.4 °F 59.0 °F 61% 30.01 in 6.2 mi NNE 3.5 mph - N/A Rain Light Rain
5:50 PM 73.4 °F 59.0 °F 61% 30.01 in 6.2 mi Variable 2.3 mph - N/A Rain Light Rain
6:20 PM 73.4 °F 60.8 °F 65% 30.01 in 6.2 mi NNW 3.5 mph - N/A   Mostly Cloudy
6:50 PM 73.4 °F 60.8 °F 65% 30.01 in 6.2 mi NE 4.6 mph - N/A   Drizzle
7:20 PM 69.8 °F 62.6 °F 78% 29.98 in 6.2 mi ENE 9.2 mph - N/A   Light Drizzle
7:50 PM 69.8 °F 60.8 °F 73% 29.98 in 6.2 mi East 8.1 mph - N/A   Light Drizzle
8:20 PM 69.8 °F 57.2 °F 64% 30.01 in 6.2 mi ESE 4.6 mph - N/A   Mostly Cloudy
8:50 PM 68.0 °F 57.2 °F 68% 30.01 in 6.2 mi Calm Calm - N/A   Scattered Clouds
9:20 PM 68.0 °F 57.2 °F 68% 30.01 in 6.2 mi Variable 1.2 mph - N/A   Scattered Clouds
9:50 PM 68.0 °F 57.2 °F 68% 30.01 in 6.2 mi Variable 1.2 mph - N/A   Scattered Clouds
10:20 PM 66.2 °F 59.0 °F 78% 30.04 in 6.2 mi West 2.3 mph - N/A   Scattered Clouds
10:50 PM 66.2 °F 59.0 °F 78% 30.04 in 6.2 mi Variable 2.3 mph - N/A   Scattered Clouds
11:20 PM 66.2 °F 59.0 °F 78% 30.04 in 6.2 mi ENE 3.5 mph - N/A   Partly Cloudy
11:50 PM 64.4 °F 59.0 °F 83% 30.04 in - NW 1.2 mph - N/A   Clear